Location: Shenandoah County Park
(38.9356°N, 78.4524°W)
Time: 04:05:46
(UTC-05:00)

X-37B - Pass Details

Date: 26 November 2022
Orbit: 277 x 277 km, 45.0° (Epoch: 01 November)

Event Time Altitude Azimuth Distance (km) Brightness Sun altitude
Exits shadow 05:26:42 16° 167° (SSE) 831 2.5 -19.5°
Drops below altitude 10° 05:27:29 10° 155° (SSE) 1,092 3.3 -19.3°
Sets 05:29:32 0° 141° (SE) 1,900 4.9 -18.9°
